Погода в Язове

Россия / Омская область     54°45′46″N   75°32′40″E
темп.,
°C
ветер,
м/с
пор.,
м/с
влажн.,
%
обл.,
%
осадки,
мм/ч
давл.,
гПа
погр.,
м
18 мая, вт
вт1800:00+22з48403 0.0 1010125
03:00+19з47475 0.0 1009107
06:00+18сз410555 0.0 1009209
09:00+21ссз5752100 0.4 1009531
12:00+26сз683791 0.6 10091601
15:00+27сз7932100 0.0 10082921
18:00+26сз7103112 0.0 10062917
21:00+16с61277100 0.3 1008483
19 мая, ср
ср1900:00+14с71186100 0.3 1009548
03:00+12ссв698185 0.0 1010746
06:00+11ссв71077100 0.0 1012823
09:00+13св71058100 0.0 10141201
12:00+16ссв783835 0.0 10142147
15:00+17с893063 0.0 10152460
18:00+14с793131 0.0 10152281
21:00+11с484298 0.0 1017255
20 мая, чт
чт2000:00+9с374940 0.0 1018146
03:00+7св585456 0.0 1019483
06:00+5ссв610565 0.0 1021511
09:00+8ссв68335 0.0 10231437
12:00+10с68255 0.0 10231771
15:00+12с6725100 0.0 10221901
18:00+12ссз5628100 0.0 10231750
21:00+10ссз2235100 0.0 102445
21 мая, пт
пт2100:00+9зсз2349100 0.0 1023245
03:00+7ююз4670100 0.4 1023417
06:00+7ю4768100 0.7 1023404
09:00+10ю565675 0.0 1023534
12:00+15ю44397 0.0 10231129
15:00+18ююз433615 0.0 10231374
18:00+19юз34367 0.0 10221272
21:00+15юз46515 0.0 102390
22 мая, сб
сб2200:00+14юз511555 0.0 1022224
03:00+13юз5136211 0.3 1021259
06:00+14зюз6136355 0.4 1021312
09:00+21зсз574866 0.0 1021429
12:00+28сз693011 0.0 10212159
15:00+29ссз78240 0.0 10202576
18:00+29ссз67280 0.0 10202544
21:00+23ссз334713 0.0 102118